Location: Monrovia
(34.7865°N, 86.7139°W)
Time: 23:01:17
(UTC+00:00)

Cosmos 1420 Rocket - Pass Details

Date: 14 July 2020
Orbit: 754 x 781 km, 74.0° (Epoch: 12 August)

Event Time Altitude Azimuth Distance (km) Brightness Sun altitude
Rises 04:02:22 0° 345° (NNW) 3,258 8.4 -27.8°
Reaches altitude 10° 04:04:46 10° 347° (NNW) 2,330 7.4 -28.0°
Enters shadow 04:09:29 66° 26° (NNE) 850 4.2 -28.5°
